Location: ???????
(55.4362°N, 38.1183°E)
Time: 18:19:13
(UTC+00:00)

Cosmos 2098 Rocket - Pass Details

Date: 17 June 2021
Orbit: 366 x 1176 km, 82.9° (Epoch: 30 July)

Event Time Altitude Azimuth Distance (km) Brightness Sun altitude
Exits shadow 23:02:17 - 181° (S) 2,622 5.7 -8.7°
Reaches altitude 10° 23:02:37 10° 181° (S) 2,492 5.6 -8.6°
Maximum altitude 23:08:09 71° 99° (E) 766 3.6 -8.4°
Drops below altitude 10° 23:12:32 10° 15° (NNE) 1,980 7.3 -8.1°
Sets 23:14:31 0° 13° (NNE) 2,777 8.5 -8.0°
